STARLINK-11556, 62838

Orbit data source: Space-Track

STARLINK-11556, 62838 is a payload satellite owned by SpaceX/Seattle (US) in LEO that was launched on Mon, 27 Jan 2025 UTC via an FALCON 9 launch vehicle from the Air Force Eastern Test Range (AFETR). Payload-class satellites include a variety of spacecraft equipped with specific instruments for various scientific and technological missions. These include communications satellites like Starlink; space stations such as the ISS; scientific satellites like the Hubble; Earth observation satellites from companies like Planet Labs, Umbra, and HawkEye 360; GPS; miniature CubeSats for education and research; and military/defense satellites.

Loading next visibility...
Identifier
62838, 2025-019K
Orbit
LEO
Country
Flag of USUS
Related business
Manufacturer
SpaceX/Seattle
Mission
Operational Commercial Communications
Bus & Motor
STARLINK V2MD, Unknown motor
Mass
960 kg wet, ~910 kg dry
Launch date (UTC)
2025-01-27 (8 months ago)
Launch vehicle
FALCON 9
Launch site
Air Force Eastern Test Range (AFETR)
Object type
Payload
Rocket body
Debris
Shape & HBR
Box + 2 Pan, 14.5 m
Radar Cross Section
36.964 m², Large (>1 m²)

Expand to show TLE details & history
Last TLE update: 19 hours ago

TLE from 19 hours ago
0 STARLINK-11556
1 62838U 25019K   25260.49311802  .00191491  00000-0  14516-2 0  9991
2 62838  42.9947 269.7527 0000824  84.0844 276.0117 15.71004544 36648
Epoch: 2025-09-17T11:50Z
TLE epoch observation values (Epoch: 2025-09-17T11:50:05.396Z)
Latitude
-0.00007°
Longitude
95.56186°
Altitude
355.737 km
Speed
7.698 km/s
True Right ascension
17h 59m 00s
True Declination
0° 00' 00"
Sunlit
Object was in daylight at epoch
Visualization orbit readout
Latitude
Unknown
Longitude
Unknown
Altitude
Unknown
Speed
Unknown
Apparent Right ascension
Unknown
Apparent Declination
Unknown
Sunlit
N/A
Visualization observer readout
Local Sidereal Time
23:53:44
Azimuth
Unknown
Elevation
Unknown
Doppler factor
Unknown
Orbital elements
Apogee altitude
358.562 km
Perigee altitude
357.452 km
Semi-major axis
6,736.144 km
Eccentricity
0.00008
Inclination
42.9947°
RAAN
269.7527°
Arg. of periapsis
84.0844°
True anomaly
276.00231°
Mean anomaly
276.0117°
Eccentric anomaly
276.007°
Mean motion
3.92578 °/min
Orbital period
91.7 mins
BSTAR
0.0014516
Loading maneuver chart data...
Computing Atmospheric mass density...
Loading historical data...
Loading historical data...
Loading historical data...
Loading historical data...
Loading historical data...
Loading historical data...
Loading historical data...

Documentation

Showing up to 5 results
|